CAPE
0 0 0 0 0 0 0 0 0 0 0 0 0 0 0 0 390 1232 1272 1429 1353 1554 1444 889 731 823 1027 939 785 336 300 127 125 81 200 118 773 1014 633 453 582 743 821 999 1033 731 537 281 24
0 0 0 0 0 0 0 0 0 0 0 0 0 0 0 0 759 1011 1566 1604 1812 1703 1191 1119 910 1018 1025 1011 803 460 361 129 79 35 133 188 722 899 567 769 766 883 968 964 909 772 479 147 0
0 0 0 0 0 0 0 0 0 0 0 0 0 0 0 20 397 1639 1626 2050 2127 1912 1263 1344 988 1084 1018 1011 789 556 381 120 20 53 198 202 694 813 710 980 803 752 746 678 570 296 40 0 0
0 0 0 0 0 0 0 0 0 0 0 0 0 0 0 36 870 1887 1561 2333 2416 1998 1537 1311 927 1188 1091 982 758 619 408 93 14 126 203 201 775 899 900 888 687 570 342 180 20 0 0 0 0
0 0 0 0 0 0 0 0 0 0 0 0 0 0 0 0 0 998 1318 2299 2592 1928 1826 1386 927 1146 1123 970 805 682 390 115 105 231 220 229 670 886 935 717 506 412 337 133 0 0 0 0 0
0 0 0 0 0 0 0 0 0 0 0 0 0 0 0 0 16 249 818 1977 2693 1911 2004 1362 1111 1071 1066 1047 817 682 404 200 261 229 204 234 522 771 672 597 561 606 361 70 0 0 0 0 0
0 0 0 0 0 0 0 0 0 0 0 0 0 0 0 0 0 62 643 1512 2545 1849 2174 1155 948 1139 1067 975 816 754 467 340 352 196 168 157 405 523 571 528 544 272 30 0 0 0 0 0 0
0 0 0 0 0 0 0 0 0 0 0 0 0 0 0 0 4 244 709 1180 2242 1750 2369 1108 798 976 1038 1225 957 765 623 511 441 226 181 145 302 411 457 276 193 31 0 0 0 0 0 0 0
0 0 0 0 0 0 0 0 0 0 0 0 0 0 0 0 0 14 465 913 1810 1618 2141 1084 804 559 347 834 1149 817 793 672 533 345 160 62 250 237 160 28 53 21 11 0 0 0 0 0 0
0 0 0 0 0 0 0 0 0 0 0 0 0 0 0 0 0 0 22 876 1419 1579 1832 1185 835 435 161 227 847 727 741 638 312 171 37 0 83 62 0 197 84 12 0 0 0 0 0 0 0
0 0 0 0 0 0 0 0 0 0 0 0 0 0 0 0 0 0 0 247 1114 1585 1852 1428 1059 590 233 215 225 164 198 91 4 0 0 0 59 0 89 207 32 4 0 0 0 0 0 0 3
0 0 0 0 0 0 0 0 0 0 0 0 0 0 0 0 0 0 0 2 720 1493 1919 1567 1284 891 525 487 0 35 0 0 0 16 0 0 121 1 38 414 35 0 0 1 0 2 7 67 114
0 0 0 0 0 0 0 0 0 0 0 0 0 0 0 0 0 0 0 0 229 1601 2120 1778 1524 1137 1025 545 70 159 11 0 0 3 0 0 144 235 5 164 0 0 1 6 60 233 101 313 549
0 0 0 0 0 0 0 0 0 0 0 0 0 0 0 0 0 0 0 0 33 1663 2297 2253 1818 1455 1143 926 325 550 294 113 110 73 0 19 286 354 86 429 31 32 58 55 42 466 669 1021 799
0 0 0 0 0 0 0 0 0 0 0 0 0 0 0 0 0 0 0 0 5 1543 2545 2409 2051 2043 1202 1561 602 1149 750 489 555 253 37 38 274 267 55 175 46 11 748 666 1373 1194 878 1174 887
0 0 0 0 0 0 0 0 0 0 0 0 0 0 0 0 0 0 0 0 0 1285 2752 2605 2505 2288 1794 2332 860 1053 703 754 713 717 283 225 242 166 267 177 36 148 1131 916 1265 1079 1210 785 751
0 0 0 0 0 0 0 0 0 0 0 0 0 0 0 0 0 0 0 0 0 31 2807 2658 2624 2329 2058 2040 1211 1383 1392 1049 825 832 644 397 227 345 70 67 125 1119 1119 1116 1198 1313 1097 1077 708
0 0 0 0 0 0 0 0 0 0 0 0 0 0 0 0 0 0 0 0 0 0 2181 2746 2660 2474 2162 1926 1800 1659 1918 967 948 750 858 478 276 434 164 393 1317 1242 1471 1361 1227 1004 1237 823 665
0 0 0 0 0 0 0 0 0 0 0 0 0 0 0 0 0 0 0 0 0 0 2020 2772 2781 2820 2458 2195 2118 1605 1778 997 1190 744 1053 664 479 493 139 1066 1302 1355 966 810 1159 1281 1045 848 388
6 14 5 6 1 8 0 0 0 0 0 0 0 0 0 0 0 0 0 0 0 0 2889 3209 3073 3118 2683 2289 2314 1851 1928 1227 1302 1159 992 652 597 435 209 1551 1094 1273 1238 1308 1336 1206 814 377 18
31 42 64 77 22 41 47 42 3 6 5 0 0 0 0 0 0 0 0 0 0 0 2948 3541 3210 3213 3022 2541 2450 2269 1938 1330 1238 1399 1021 746 748 243 1569 1346 1352 1281 1220 789 362 228 207 149 15
55 89 93 105 79 42 81 81 56 51 42 12 0 0 0 0 0 0 0 0 0 0 1478 3439 3348 3417 2977 2854 2357 2112 1901 1423 1290 1344 1435 1173 678 386 1575 1494 1413 849 530 179 30 13 0 11 9
25 85 0 1 1 0 7 144 54 71 21 0 0 0 0 0 0 0 0 0 1 0 1095 3102 3371 3211 3222 2779 2290 2231 1894 1562 1391 1291 1487 1192 708 1533 1310 1070 598 291 94 0 0 0 13 2 2
13 38 21 39 51 10 38 21 17 18 15 28 15 3 0 0 0 1 0 0 0 4 2199 3285 3193 3193 3326 2599 2008 2245 1787 1477 1336 1656 1436 1106 1250 1396 1008 513 155 2 0 0 0 0 0 0 0
20 25 11 9 14 0 2 25 18 70 68 84 53 32 0 0 1 0 10 0 0 0 2539 3271 3294 2952 3005 2276 2134 2129 1760 1516 1581 1523 1680 1257 1076 886 349 207 68 0 0 0 0 0 0 0 0
30 38 56 8 3 12 1 1 4 55 25 25 3 20 0 9 1 0 0 0 0 0 2155 2607 3465 2683 2723 2419 1871 2047 2082 1489 1765 1868 1153 846 679 421 249 162 19 0 0 0 0 0 0 0 0
2 11 14 11 5 2 0 0 20 44 33 10 29 45 28 15 0 0 0 0 0 4 2472 3286 3142 2581 2693 2145 1817 2032 1702 1859 1574 1099 687 652 503 253 204 28 0 0 0 0 0 0 0 0 0
2 0 0 2 0 0 0 2 8 72 74 4 67 177 98 1 0 2 11 0 0 10 2790 3110 2731 2616 2643 2126 1882 1940 1628 1547 1038 876 709 548 297 131 12 0 0 0 0 0 0 0 0 0 0
9 6 0 0 2 1 0 0 30 72 22 17 53 87 145 1 0 3 26 14 6 44 2875 2701 2941 2695 2454 2036 1774 1771 1288 1038 1092 907 631 461 181 116 0 2 0 0 0 0 0 0 0 0 0
0 3 7 3 9 5 1 0 0 0 6 3 0 31 13 9 0 0 2 29 56 20 2678 2355 2784 2413 2113 1830 1702 1401 910 1024 1020 693 658 369 106 14 0 0 0 0 0 0 0 0 0 0 0
CIN
-0 -0 -0 -0 -0 -0 -0 -0 -0 -0 -0 -0 -0 -0 -0 -0 -14 -34 -84 -111 -347 -473 -547 -605 -600 -540 -459 -435 -445 -571 -565 -637 -617 -646 -533 -590 -227 -137 -211 -241 -161 -90 -57 -15 -11 -41 -81 -151 -290
-0 -0 -0 -0 -0 -0 -0 -0 -0 -0 -0 -0 -0 -0 -0 -0 -40 -73 -102 -136 -325 -474 -592 -575 -590 -514 -464 -425 -446 -521 -535 -641 -648 -676 -564 -518 -228 -158 -222 -141 -103 -64 -32 -29 -37 -54 -104 -201 -0
-0 -0 -0 -0 -0 -0 -0 -0 -0 -0 -0 -0 -0 -0 -0 -15 -34 -51 -136 -175 -328 -419 -538 -528 -568 -509 -468 -438 -452 -492 -526 -642 -693 -657 -529 -494 -229 -172 -170 -86 -102 -85 -69 -76 -105 -179 -304 -0 -0
-0 -0 -0 -0 -0 -0 -0 -0 -0 -0 -0 -0 -0 -0 -0 -66 -65 -82 -116 -167 -304 -379 -458 -545 -585 -491 -453 -442 -458 -459 -506 -629 -687 -587 -505 -461 -194 -143 -122 -107 -123 -128 -170 -227 -362 -8 -0 -0 -0
-0 -0 -0 -0 -0 -0 -0 -0 -0 -0 -0 -0 -0 -0 -0 -0 -0 -139 -131 -125 -232 -336 -394 -518 -587 -506 -469 -452 -444 -443 -486 -584 -579 -487 -462 -429 -219 -142 -107 -142 -174 -181 -192 -255 -0 -0 -0 -0 -0
-0 -0 -0 -0 -0 -0 -0 -0 -0 -0 -0 -0 -0 -0 -0 -0 -223 -154 -152 -101 -164 -293 -376 -514 -548 -521 -483 -453 -456 -442 -478 -507 -471 -462 -432 -401 -247 -163 -164 -161 -154 -134 -190 -339 -0 -0 -0 -0 -0
-0 -0 -0 -0 -0 -0 -0 -0 -0 -0 -0 -0 -0 -0 -0 -0 -0 -186 -147 -95 -108 -226 -341 -536 -569 -495 -471 -453 -451 -431 -455 -459 -433 -458 -434 -415 -271 -213 -184 -183 -157 -221 -386 -0 -0 -0 -0 -0 -0
-0 -0 -0 -0 -0 -0 -0 -0 -0 -0 -0 -0 -0 -0 -0 -0 -26 -159 -133 -84 -67 -150 -251 -486 -558 -518 -466 -391 -425 -429 -423 -413 -397 -426 -417 -399 -298 -241 -209 -247 -273 -366 -16 -0 -0 -0 -0 -0 -0
-0 -0 -0 -0 -0 -0 -0 -0 -0 -0 -0 -0 -0 -0 -0 -0 -0 -178 -127 -89 -36 -88 -188 -411 -505 -578 -590 -455 -359 -412 -382 -371 -372 -372 -414 -451 -301 -282 -299 -388 -303 -397 -365 -0 -0 -0 -0 -0 -0
-0 -0 -0 -0 -0 -0 -0 -0 -0 -0 -0 -0 -0 -0 -0 -0 -0 -0 -110 -71 -23 -43 -168 -343 -429 -552 -614 -578 -418 -409 -378 -370 -424 -433 -492 -0 -362 -364 -0 -267 -335 -383 -0 -0 -0 -0 -0 -0 -0
-0 -0 -0 -0 -0 -0 -0 -0 -0 -0 -0 -0 -0 -0 -0 -0 -0 -0 -0 -90 -7 -9 -77 -249 -354 -439 -527 -560 -589 -570 -536 -540 -278 -0 -0 -0 -352 -0 -307 -271 -334 -392 -0 -0 -0 -0 -0 -0 -164
-0 -0 -0 -0 -0 -0 -0 -0 -0 -0 -0 -0 -0 -0 -0 -0 -0 -0 -0 -179 -7 -5 -15 -149 -308 -327 -362 -490 -51 -601 -0 -0 -0 -341 -0 -0 -298 -31 -276 -173 -298 -0 -0 -106 -0 -27 -246 -171 -74
-0 -0 -0 -0 -0 -0 -0 -0 -0 -0 -0 -0 -0 -0 -0 -0 -0 -0 -0 -0 -51 -11 -19 -83 -241 -276 -208 -439 -505 -480 -571 -0 -0 -348 -0 -0 -264 -200 -114 -168 -0 -0 -94 -191 -184 -102 -111 -22 -5
-0 -0 -0 -0 -0 -0 -0 -0 -0 -0 -0 -0 -0 -0 -0 -0 -0 -0 -0 -0 -80 -7 -37 -59 -140 -214 -158 -276 -364 -298 -346 -386 -386 -353 -0 -61 -189 -147 -193 -87 -109 -211 -169 -131 -115 -15 -10 -7 -8
-0 -0 -0 -0 -0 -0 -0 -0 -0 -0 -0 -0 -0 -0 -0 -0 -0 -0 -0 -0 -24 -13 -49 -79 -77 -111 -156 -107 -273 -119 -174 -210 -171 -285 -358 -54 -178 -148 -185 -110 -196 -156 -7 -12 -9 -3 -11 -4 -8
-0 -0 -0 -0 -0 -0 -0 -0 -0 -0 -0 -0 -0 -0 -0 -0 -0 -0 -0 -0 -0 -22 -39 -100 -77 -82 -80 -12 -190 -100 -144 -112 -95 -140 -269 -263 -178 -170 -96 -109 -209 -75 -7 -13 -7 -12 -11 -8 -8
-0 -0 -0 -0 -0 -0 -0 -0 -0 -0 -0 -0 -0 -0 -0 -0 -0 -0 -0 -0 -0 -48 -27 -49 -82 -95 -68 -28 -86 -54 -36 -44 -78 -96 -201 -182 -189 -129 -179 -179 -158 -3 -6 -6 -13 -10 -6 -5 -6
-0 -0 -0 -0 -0 -0 -11 -0 -3 -0 -0 -0 -0 -0 -0 -0 -0 -0 -0 -0 -0 -0 -43 -47 -65 -58 -72 -32 -17 -22 -2 -43 -43 -81 -163 -156 -183 -126 -126 -45 -5 -8 -14 -4 -19 -13 -11 -20 -24
-0 -0 -0 -0 -0 -0 -0 -0 -0 -0 -0 -0 -0 -0 -0 -0 -0 -0 -0 -0 -0 -0 -45 -54 -43 -18 -52 -30 -6 -22 -1 -65 -20 -72 -122 -126 -141 -114 -152 -5 -12 -16 -21 -17 -9 -5 -14 -10 -46
-17 -11 -10 -11 -24 -45 -5 -0 -0 -0 -0 -0 -0 -0 -0 -0 -0 -0 -0 -0 -0 -0 -35 -54 -62 -37 -42 -41 -25 -37 -8 -65 -13 -40 -132 -118 -133 -129 -128 -7 -23 -19 -17 -5 -9 -17 -8 -24 -60
-8 -12 -6 -16 -37 -19 -6 -11 -26 -13 -8 -0 -0 -0 -0 -0 -0 -0 -0 -0 -0 -0 -29 -36 -56 -41 -37 -19 -8 -1 -4 -29 -8 -53 -126 -100 -126 -151 -4 -9 -14 -20 -4 -39 -77 -85 -71 -76 -141
-8 -5 -12 -2 -8 -12 -13 -8 -18 -7 -4 -14 -0 -0 -0 -0 -0 -0 -0 -0 -0 -0 -20 -35 -52 -20 -41 -2 -7 -9 -29 -87 -41 -80 -70 -58 -127 -101 -3 -12 -14 -50 -73 -115 -212 -32 -0 -125 -121
-14 -8 -66 -59 -4 -1 -51 -7 -10 -2 -7 -0 -0 -0 -0 -0 -0 -0 -0 -0 -1 -0 -16 -37 -24 -38 -19 -3 -4 -4 -31 -63 -27 -56 -43 -59 -98 -7 -35 -36 -95 -126 -189 -0 -0 -0 -228 -111 -85
-5 -7 -50 -46 -13 -1 -59 -5 -9 -9 -6 -5 -10 -8 -0 -0 -0 -1 -0 -0 -0 -2 -20 -36 -33 -23 -6 -9 -2 -3 -32 -58 -33 -17 -55 -75 -44 -34 -57 -119 -201 -38 -0 -0 -0 -0 -0 -0 -0
-3 -2 -4 -4 -3 -0 -35 -19 -112 -73 -22 -29 -20 -6 -0 -0 -1 -0 -0 -0 -0 -0 -14 -22 -26 -16 -9 -12 -5 -5 -17 -38 -24 -62 -67 -105 -107 -100 -172 -205 -247 -0 -0 -0 -0 -0 -0 -0 -0
-4 -15 -4 -1 -7 -5 -6 -6 -52 -8 -37 -72 -47 -14 -0 -17 -2 -0 -0 -0 -0 -0 -34 -12 -9 -17 -7 -3 -15 -6 -6 -12 -31 -89 -180 -169 -160 -192 -196 -196 -132 -0 -0 -0 -0 -0 -0 -0 -0
-1 -2 -5 -9 -9 -6 -0 -0 -17 -57 -66 -74 -39 -4 -9 -11 -0 -0 -0 -0 -0 -4 -8 -16 -38 -55 -5 -9 -25 -3 -3 -20 -164 -204 -208 -176 -190 -242 -194 -254 -0 -0 -0 -0 -0 -0 -0 -0 -0
-1 -0 -0 -2 -0 -0 -0 -3 -9 -23 -24 -120 -84 -20 -9 -50 -0 -28 -19 -0 -0 -2 -21 -31 -32 -38 -5 -14 -12 -2 -7 -124 -215 -200 -184 -212 -279 -298 -368 -0 -0 -0 -0 -0 -0 -0 -0 -0 -0
-3 -10 -13 -0 -0 -0 -0 -0 -6 -20 -46 -53 -140 -142 -84 -1 -0 -5 -3 -4 -6 -3 -27 -40 -23 -28 -9 -3 -12 -17 -91 -161 -135 -158 -205 -240 -323 -282 -0 -0 -0 -0 -0 -0 -0 -0 -0 -0 -0
-0 -2 -4 -5 -2 -15 -5 -0 -0 -0 -26 -60 -1 -119 -130 -9 -0 -109 -1 -10 -0 -9 -32 -10 -30 -39 -19 -9 -5 -26 -120 -118 -119 -181 -199 -271 -341 -399 -0 -0 -0 -0 -0 -0 -0 -0 -0 -0 -0
Wind_Speed
27 23 23 27 25 25 35 35 34 34 28 28 24 21 23 23 18 12 8 10 12 13 14 14 15 18 19 20 20 20 20 21 20 20 20 23 25 25 24 24 23 23 22 21 21 20 20 20 20
26 24 23 25 31 35 37 34 33 33 28 17 19 22 23 18 14 9 7 8 10 12 14 16 18 17 17 19 20 20 20 20 20 20 22 24 24 22 22 22 22 21 21 21 20 19 19 19 19
20 21 23 23 35 42 40 36 33 26 24 15 21 20 22 15 15 10 7 7 8 10 15 16 20 17 16 18 19 20 19 19 19 20 20 21 21 20 20 20 20 20 20 19 19 18 18 18 18
17 19 25 35 45 35 37 37 40 35 25 22 19 23 20 15 13 11 7 4 5 7 11 16 20 18 16 17 17 17 17 17 18 17 18 19 19 18 18 17 18 18 18 18 18 18 17 17 17
17 24 32 37 47 45 44 35 33 34 23 30 22 28 20 12 12 11 8 2 1 4 7 9 15 17 17 17 17 16 15 16 16 15 16 17 17 16 16 16 16 16 17 17 17 17 16 16 16
21 23 38 41 44 43 40 37 42 39 29 23 23 22 20 9 11 12 8 3 3 5 5 7 11 15 16 16 16 16 16 16 15 14 15 15 15 14 14 14 15 15 16 16 16 16 15 16 15
27 31 41 46 50 50 43 35 37 34 39 24 29 20 18 9 15 14 10 4 3 6 6 7 9 12 13 14 13 14 15 15 13 13 13 13 13 13 13 13 13 14 14 15 15 15 14 14 14
25 33 45 47 50 55 43 46 44 39 37 27 21 32 29 28 10 12 11 9 6 6 6 7 9 10 10 11 14 13 11 11 11 11 11 11 12 12 12 11 11 12 13 13 13 14 14 13 14
29 40 48 46 47 50 45 47 44 43 35 28 26 29 31 22 11 12 12 12 9 8 8 7 9 9 9 8 9 9 10 10 10 10 10 11 10 10 10 9 10 10 11 12 12 12 12 12 12
29 41 47 40 43 46 44 46 47 44 45 33 31 32 32 30 19 21 16 15 13 12 10 9 10 10 9 7 7 7 8 9 9 9 9 10 9 9 8 8 8 9 10 10 11 11 11 11 11
32 43 42 45 47 45 46 49 46 46 47 36 34 35 32 32 27 22 27 18 16 14 13 11 11 11 10 7 7 5 6 5 6 7 8 9 7 8 7 7 7 8 8 9 9 9 9 9 9
40 44 44 47 48 49 51 49 50 48 47 42 35 37 37 36 29 24 27 25 18 16 15 14 14 12 11 8 7 6 5 5 4 5 9 7 5 5 5 6 5 6 6 7 8 8 9 8 14
41 43 45 45 47 49 50 53 51 53 49 45 43 42 41 41 36 30 27 31 23 17 17 16 15 14 13 10 8 7 6 5 4 5 8 6 4 4 4 4 5 6 6 6 5 8 12 11 12
37 43 47 47 48 47 49 51 51 55 50 52 49 47 45 44 42 31 29 30 28 19 18 16 17 16 14 11 10 8 7 6 6 5 7 7 3 3 2 3 4 5 5 7 7 10 10 13 14
35 42 42 45 46 51 47 57 57 50 50 55 54 52 50 50 48 43 33 33 32 23 20 19 18 17 16 12 11 9 8 7 6 5 6 6 4 4 2 4 4 5 10 9 14 12 12 15 16
40 43 51 45 45 47 43 64 51 49 52 57 56 55 54 50 52 48 40 38 32 21 21 22 20 19 18 14 12 11 9 8 6 5 6 5 4 3 2 3 2 4 8 9 12 13 14 14 13
37 47 48 51 43 46 41 56 43 41 46 51 52 53 52 55 51 51 49 44 39 29 22 21 21 22 20 18 14 13 11 9 6 4 5 3 4 1 0 3 2 6 8 9 10 12 14 16 18
45 47 47 49 45 44 41 47 39 36 45 46 46 49 50 52 52 47 45 46 41 35 28 26 24 22 21 22 18 17 15 12 8 6 4 4 4 1 2 3 3 6 8 10 14 15 17 18 20
46 49 51 46 45 52 50 48 48 46 43 45 48 51 55 49 52 46 46 48 46 38 34 31 30 26 23 23 22 20 18 14 12 7 5 3 3 2 2 4 4 7 7 10 13 15 17 19 22
41 46 48 48 47 51 55 54 50 47 43 45 49 52 51 53 45 46 45 43 48 45 35 34 31 30 27 26 25 21 18 15 12 8 5 4 4 3 2 2 3 5 7 10 15 17 18 20 23
34 31 36 44 49 53 51 57 54 51 44 43 46 49 55 53 47 40 39 44 41 40 36 36 32 30 28 27 26 23 19 15 13 9 6 5 4 4 1 2 3 4 7 10 13 16 17 19 20
24 40 42 41 34 43 31 52 48 44 44 40 38 43 50 56 50 45 44 43 40 42 34 35 32 30 29 29 29 26 22 18 14 9 6 4 4 6 0 2 4 4 7 8 12 16 20 22 28
23 39 41 43 32 29 40 31 42 35 44 45 44 45 48 55 54 50 48 45 38 36 34 34 33 30 29 31 30 27 22 18 13 10 8 5 4 2 3 2 3 5 7 9 11 14 16 20 21
24 21 18 24 38 39 37 25 33 22 34 41 39 35 44 49 59 50 49 49 45 34 32 33 33 33 30 33 32 29 23 20 16 12 9 6 4 3 2 1 3 5 6 7 9 11 16 20 15
14 20 16 5 5 25 25 25 13 17 40 45 47 40 46 46 48 54 48 52 49 38 32 32 33 33 33 35 32 29 26 21 18 15 11 8 5 4 3 1 2 3 5 7 11 16 18 17 16
17 14 12 9 16 28 35 24 31 38 26 28 31 45 36 45 36 46 52 54 51 40 34 33 32 31 35 36 35 32 27 23 19 15 12 9 6 4 3 2 3 4 6 8 13 16 15 16 17
9 18 28 26 33 29 31 34 32 37 36 38 16 17 36 44 48 39 52 58 54 42 36 34 32 31 35 37 35 34 28 24 20 17 12 8 6 5 4 4 5 6 8 10 12 13 15 16 16
10 9 19 15 17 17 13 12 19 30 35 37 37 21 38 43 44 45 50 57 54 46 37 36 33 34 36 37 37 34 29 24 21 18 13 10 7 6 5 5 5 7 9 11 12 13 14 16 18
9 14 14 13 13 17 27 11 22 32 34 35 39 35 36 37 39 43 40 46 49 42 39 37 33 34 37 37 37 34 31 26 22 17 13 9 9 7 6 6 7 8 10 11 12 13 15 16 19
19 23 19 19 19 17 19 27 33 39 29 38 37 27 32 27 39 42 36 44 41 45 38 37 35 34 37 39 38 34 30 25 21 17 13 11 9 8 7 7 7 9 10 12 12 14 15 17 19
Wind_Direction
285 296 298 289 279 273 254 251 252 262 283 286 291 289 303 305 319 332 29 31 86 94 106 101 98 100 102 103 102 100 98 96 91 85 82 92 97 91 86 85 85 85 82 78 76 68 61 57 55
285 286 295 287 268 261 252 255 257 266 287 309 299 292 287 310 347 352 357 62 79 98 107 104 107 103 101 104 106 104 102 100 95 93 94 101 99 90 88 83 80 78 78 76 72 65 61 58 57
297 291 289 286 266 233 252 259 263 283 307 306 290 293 288 310 332 335 3 68 79 92 110 106 113 108 105 106 108 107 105 102 100 98 96 100 98 91 89 79 73 74 73 70 66 62 60 59 58
301 292 285 271 254 266 263 268 263 276 287 294 297 279 293 308 319 336 352 69 81 95 112 113 117 114 109 109 108 106 104 104 103 99 96 98 96 90 85 75 70 68 67 66 64 63 63 63 61
292 285 276 272 259 258 260 273 275 279 291 286 294 275 287 302 307 307 315 81 130 120 119 117 117 118 116 114 112 108 106 105 103 98 98 98 96 90 82 73 68 66 65 63 61 60 64 64 62
282 282 272 271 270 270 270 273 269 276 290 287 289 285 291 317 298 296 296 260 137 144 135 132 123 122 122 119 117 114 113 111 106 100 100 97 96 90 81 71 67 65 64 63 61 61 63 60 59
276 275 272 271 267 265 270 275 273 277 275 280 276 281 285 301 294 285 284 242 195 156 144 147 138 128 127 126 122 119 117 116 108 104 100 96 94 87 80 72 66 63 64 64 65 70 66 63 60
279 277 273 271 270 265 274 271 270 275 277 278 269 269 277 284 289 282 283 261 233 191 176 163 157 142 136 130 128 125 120 115 111 105 101 98 94 88 80 72 66 68 67 64 66 68 68 66 59
281 273 270 271 272 274 276 273 273 274 284 282 276 274 278 288 294 281 275 264 240 215 202 174 175 163 150 144 138 129 122 116 113 106 105 102 93 94 86 79 70 66 60 62 67 68 67 74 76
273 272 271 277 278 278 277 274 272 272 272 274 276 273 274 273 273 277 272 261 241 220 208 197 189 180 167 162 155 143 131 124 120 114 114 111 99 103 94 67 68 63 61 61 66 67 69 56 55
276 272 278 277 277 279 280 275 274 272 268 276 268 272 268 267 274 267 268 259 244 225 218 208 198 190 183 186 173 167 150 139 129 124 126 123 104 111 67 48 51 51 58 58 57 60 59 56 46
278 277 278 279 277 276 275 277 272 271 268 272 279 271 267 270 267 263 263 262 249 225 218 209 195 201 207 187 185 190 179 164 152 138 140 130 103 105 92 57 64 61 65 65 60 53 51 52 23
285 284 281 279 277 276 275 272 272 268 269 271 272 271 268 267 273 263 260 258 255 230 218 209 200 201 217 196 192 192 189 184 170 157 151 140 118 112 115 72 79 80 77 66 61 38 17 28 29
294 288 284 283 281 279 276 273 270 266 270 267 267 268 267 264 264 271 257 256 257 240 218 211 205 205 208 212 200 206 199 191 186 164 162 156 131 126 88 54 68 59 50 55 43 38 36 16 18
298 293 288 282 280 276 279 271 267 271 269 265 264 265 264 262 260 261 262 257 256 253 219 212 208 209 205 221 204 219 211 199 201 175 158 163 150 131 93 21 27 36 21 30 19 22 20 15 9
296 291 285 286 283 279 275 268 272 271 267 265 263 263 263 261 257 257 262 255 257 261 225 215 214 211 217 229 217 230 215 212 220 192 165 160 149 135 13 17 27 41 23 21 4 10 9 10 13
298 290 288 286 285 282 276 271 273 275 273 266 263 262 260 258 256 254 256 258 252 252 233 230 214 211 215 226 228 232 237 235 226 211 170 178 166 133 280 12 29 27 24 27 15 11 12 7 358
298 294 291 287 285 281 284 279 280 281 272 271 269 264 263 258 254 253 252 254 254 245 234 229 229 220 213 220 233 235 248 236 239 232 184 167 178 153 167 342 33 4 12 11 358 7 1 2 357
301 296 292 292 289 281 279 275 277 280 278 275 269 267 262 261 259 250 250 251 251 251 231 228 229 227 220 220 223 226 238 226 249 239 185 170 175 166 168 357 22 6 3 9 7 10 8 3 356
302 297 292 289 285 277 275 274 277 277 277 276 273 270 266 262 256 256 245 247 246 247 234 228 225 225 226 225 222 223 233 222 243 235 190 182 178 174 205 33 28 17 20 17 1 3 1 4 0
305 296 295 288 281 273 279 275 274 275 277 280 273 271 265 263 261 258 248 246 243 242 230 226 224 223 225 226 220 223 230 223 233 224 194 195 160 174 287 50 26 35 29 10 16 14 11 1 6
308 290 285 287 296 284 285 276 275 276 279 278 277 269 267 259 260 256 256 253 240 237 234 225 222 220 222 220 215 216 217 212 219 205 201 188 160 171 290 50 49 50 26 25 12 6 2 2 349
247 267 278 257 242 305 242 285 283 286 279 280 279 278 267 258 256 252 252 252 253 233 229 224 222 219 219 216 213 215 214 209 208 204 188 183 166 168 122 92 59 41 24 19 14 10 8 12 7
244 284 234 232 249 280 248 280 294 282 291 287 291 286 276 260 250 251 249 249 250 239 222 220 219 220 219 213 215 216 209 200 197 193 187 173 179 162 148 102 42 45 31 28 23 17 4 7 23
215 224 225 269 272 240 238 250 282 304 265 287 282 290 282 262 250 247 245 242 243 237 217 216 217 220 219 211 209 213 210 202 199 189 180 177 177 170 147 104 70 30 31 21 12 9 16 14 22
227 209 208 237 234 254 262 251 248 281 316 315 293 287 284 252 263 243 242 237 238 234 221 215 216 219 215 209 209 210 211 201 198 189 178 176 167 145 120 83 51 45 36 26 10 12 22 26 35
238 228 239 247 253 257 253 255 253 304 305 277 240 260 276 257 251 258 238 235 233 231 216 214 216 213 212 207 207 207 203 195 191 179 178 169 150 127 101 87 69 49 28 17 19 29 26 25 36
235 257 242 238 249 258 259 265 332 313 312 308 292 281 276 257 246 245 236 229 228 228 218 216 215 208 205 204 203 200 199 193 186 179 176 165 144 125 109 84 57 48 34 31 39 34 26 24 19
241 238 238 252 266 267 259 282 327 318 320 302 307 280 269 241 240 239 226 222 225 225 215 214 210 207 207 203 198 194 192 187 183 180 170 159 139 124 105 80 62 47 45 45 41 36 31 23 13
242 243 243 312 322 312 299 255 304 292 315 317 318 259 281 275 232 231 246 227 222 222 212 210 211 204 202 198 198 192 190 184 182 174 161 144 131 115 100 81 59 56 52 56 44 31 23 18 14